Private Wetterstation Wechselburg
Wetterdaten: Montag, 03.04.2023
Datum Zeit Temp. +2m Bodentemp. Temp.+5cm Temp. Wind Windchill X Diff Temp. Feuchte +2m Feuchte +5cm Luftdruck Regen Wind Richtung Richtung Sonnenschein Taupunkt Windchill Windben
03.04.2023 00:00 3,5 C 9,4 C 3,2 C 3,4 C 3,3 C 0,0 C 79 % 55 % 1026,8 hPa 0,0 l/m 0,3 km/h (0 Bft) O 90 0 min 0,2 C 3,3 C 0,0 km/h (0 Bft)
03.04.2023 00:05 3,5 C 9,4 C 3,2 C 3,4 C 3,3 C 0,0 C 79 % 56 % 1027,4 hPa 0,0 l/m 0,2 km/h (0 Bft) N-NO 22 0 min 0,2 C 3,3 C 0,0 km/h (0 Bft)
03.04.2023 00:11 3,4 C 9,4 C 3,1 C 3,3 C 3,1 C 0,0 C 78 % 55 % 1027,4 hPa 0,0 l/m 0,2 km/h (0 Bft) N 0 0 min -0,1 C 3,1 C 0,0 km/h (0 Bft)
03.04.2023 00:31 3,3 C 9,4 C 2,7 C 3,1 C 2,8 C 0,0 C 78 % 54 % 1027,4 hPa 0,0 l/m 0,3 km/h (0 Bft) O-NO 67 0 min -0,2 C 2,8 C 4,0 km/h (1 Bft)
03.04.2023 00:33 3,3 C 9,4 C 2,7 C 3,1 C 2,8 C 0,0 C 78 % 54 % 1027,4 hPa 0,0 l/m 0,3 km/h (0 Bft) O-NO 67 0 min -0,2 C 2,8 C 4,0 km/h (1 Bft)
03.04.2023 00:35 3,3 C 9,4 C 2,7 C 3,1 C 2,8 C 0,0 C 78 % 54 % 1027,4 hPa 0,0 l/m 0,3 km/h (0 Bft) O-NO 67 0 min -0,2 C 2,8 C 4,0 km/h (1 Bft)
03.04.2023 00:40 3,2 C 9,4 C 2,6 C 3,0 C 2,7 C 0,0 C 78 % 54 % 1027,4 hPa 0,0 l/m 0,3 km/h (0 Bft) O-NO 67 0 min -0,3 C 2,7 C 0,0 km/h (0 Bft)
03.04.2023 00:45 3,2 C 9,3 C 2,5 C 3,0 C 2,5 C 0,0 C 78 % 55 % 1027,1 hPa 0,0 l/m 0,2 km/h (0 Bft) N 360 0 min -0,3 C 2,5 C 1,8 km/h (1 Bft)
03.04.2023 00:50 3,1 C 9,4 C 2,4 C 2,9 C 2,4 C 0,0 C 78 % 54 % 1027,1 hPa 0,0 l/m 0,2 km/h (0 Bft) O-NO 67 0 min -0,4 C 2,4 C 0,0 km/h (0 Bft)
03.04.2023 00:55 3,1 C 9,3 C 2,3 C 2,8 C 2,3 C 0,0 C 78 % 55 % 1027,1 hPa 0,0 l/m 0,2 km/h (0 Bft) O-SO 112 0 min -0,4 C 2,3 C 0,0 km/h (0 Bft)
03.04.2023 01:00 2,9 C 9,3 C 2,3 C 2,7 C 2,3 C 0,0 C 77 % 55 % 1027,1 hPa 0,0 l/m 0,2 km/h (0 Bft) N-NO 22 0 min -0,7 C 2,3 C 0,0 km/h (0 Bft)
03.04.2023 01:05 2,8 C 9,3 C 2,3 C 2,6 C 2,1 C 0,0 C 78 % 54 % 1027,0 hPa 0,0 l/m 0,5 km/h (0 Bft) NO 45 0 min -0,6 C 2,1 C 6,3 km/h (2 Bft)
03.04.2023 01:10 2,8 C 9,3 C 2,1 C 2,6 C 2,1 C 0,0 C 78 % 54 % 1027,0 hPa 0,0 l/m 0,3 km/h (0 Bft) O-NO 67 0 min -0,6 C 2,1 C 0,0 km/h (0 Bft)
03.04.2023 01:15 2,7 C 9,3 C 2,0 C 2,4 C 1,9 C 0,0 C 77 % 54 % 1027,0 hPa 0,0 l/m 0,3 km/h (0 Bft) N-NO 22 0 min -0,9 C 1,9 C 1,6 km/h (1 Bft)
03.04.2023 01:20 2,7 C 9,3 C 2,0 C 2,4 C 1,9 C 0,0 C 77 % 54 % 1027,0 hPa 0,0 l/m 0,3 km/h (0 Bft) N-NO 22 0 min -0,9 C 1,9 C 0,0 km/h (0 Bft)
03.04.2023 01:25 2,5 C 9,3 C 2,0 C 2,3 C 1,8 C 0,0 C 78 % 55 % 1027,6 hPa 0,0 l/m 0,3 km/h (0 Bft) O-NO 67 0 min -0,9 C 1,8 C 0,0 km/h (0 Bft)
03.04.2023 01:30 2,5 C 9,3 C 2,0 C 2,3 C 1,8 C 0,0 C 78 % 55 % 1027,6 hPa 0,0 l/m 0,2 km/h (0 Bft) O-SO 112 0 min -0,9 C 1,8 C 0,0 km/h (0 Bft)
03.04.2023 01:35 2,4 C 9,3 C 1,9 C 2,2 C 1,8 C 0,0 C 78 % 55 % 1027,6 hPa 0,0 l/m 0,2 km/h (0 Bft) O-NO 67 0 min -1,0 C 1,8 C 0,0 km/h (0 Bft)
03.04.2023 01:40 2,4 C 9,3 C 1,8 C 2,2 C 1,7 C 0,0 C 78 % 54 % 1027,6 hPa 0,0 l/m 0,2 km/h (0 Bft) NO 45 0 min -1,0 C 1,7 C 0,0 km/h (0 Bft)
03.04.2023 01:45 2,3 C 9,3 C 1,7 C 2,1 C 1,6 C 0,0 C 78 % 54 % 1027,3 hPa 0,0 l/m 0,2 km/h (0 Bft) NW 315 0 min -1,1 C 1,6 C 0,0 km/h (0 Bft)
03.04.2023 01:50 2,3 C 9,2 C 1,6 C 2,0 C 1,5 C 0,0 C 78 % 54 % 1027,3 hPa 0,0 l/m 0,2 km/h (0 Bft) W 270 0 min -1,1 C 1,5 C 2,4 km/h (1 Bft)
03.04.2023 01:55 2,1 C 9,2 C 1,6 C 1,9 C 1,5 C 0,0 C 78 % 54 % 1027,3 hPa 0,0 l/m 0,2 km/h (0 Bft) S-SW 202 0 min -1,3 C 1,5 C 0,0 km/h (0 Bft)
03.04.2023 02:00 2,1 C 9,2 C 1,6 C 1,9 C 1,4 C 0,0 C 78 % 54 % 1027,3 hPa 0,0 l/m 0,3 km/h (0 Bft) NW 315 0 min -1,3 C 1,4 C 2,1 km/h (1 Bft)
03.04.2023 02:05 2,1 C 9,2 C 1,4 C 1,8 C 1,3 C 0,0 C 78 % 54 % 1027,4 hPa 0,0 l/m 0,2 km/h (0 Bft) O-NO 67 0 min -1,3 C 1,3 C 0,0 km/h (0 Bft)
03.04.2023 02:11 1,8 C 9,2 C 1,2 C 1,6 C 1,1 C 0,0 C 78 % 55 % 1027,4 hPa 0,0 l/m 0,0 km/h (0 Bft) N 0 0 min -1,6 C 1,1 C 0,0 km/h (0 Bft)
03.04.2023 02:26 1,6 C 9,2 C 1,0 C 1,3 C 0,8 C 0,0 C 78 % 55 % 1027,4 hPa 0,0 l/m 0,3 km/h (0 Bft) NO 45 0 min -1,8 C 0,8 C 0,0 km/h (0 Bft)
03.04.2023 02:27 1,6 C 9,2 C 1,0 C 1,3 C 0,8 C 0,0 C 78 % 55 % 1027,4 hPa 0,0 l/m 0,3 km/h (0 Bft) NO 45 0 min -1,8 C 0,8 C 0,0 km/h (0 Bft)
03.04.2023 02:47 1,4 C 9,1 C 1,0 C 1,2 C 0,8 C 0,0 C 78 % 54 % 1028,0 hPa 0,0 l/m 0,5 km/h (0 Bft) NO 45 0 min -2,0 C 0,8 C 0,0 km/h (0 Bft)
03.04.2023 02:59 1,3 C 9,1 C 1,0 C 1,1 C 0,7 C 0,0 C 78 % 53 % 1028,0 hPa 0,0 l/m 0,3 km/h (0 Bft) NO 45 0 min -2,1 C 0,7 C 0,0 km/h (0 Bft)
03.04.2023 03:05 1,3 C 9,1 C 0,9 C 1,1 C 0,7 C 0,0 C 78 % 54 % 1028,0 hPa 0,0 l/m 0,3 km/h (0 Bft) O-NO 67 0 min -2,1 C 0,7 C 0,0 km/h (0 Bft)
03.04.2023 03:10 1,2 C 9,1 C 0,8 C 1,0 C 0,6 C 0,0 C 78 % 54 % 1028,0 hPa 0,0 l/m 0,0 km/h (0 Bft) O-NO 67 0 min -2,2 C 0,6 C 0,0 km/h (0 Bft)
03.04.2023 03:15 1,2 C 9,1 C 0,8 C 1,0 C 0,6 C 0,0 C 78 % 54 % 1028,0 hPa 0,0 l/m 0,0 km/h (0 Bft) NO 45 0 min -2,2 C 0,6 C 0,0 km/h (0 Bft)
03.04.2023 03:20 1,2 C 9,0 C 0,8 C 1,0 C 0,6 C 0,0 C 78 % 54 % 1028,0 hPa 0,0 l/m 0,0 km/h (0 Bft) NO 45 0 min -2,2 C 0,6 C 0,0 km/h (0 Bft)
03.04.2023 03:25 1,1 C 9,0 C 0,7 C 0,9 C 0,6 C 0,0 C 79 % 54 % 1027,9 hPa 0,0 l/m 0,0 km/h (0 Bft) O 90 0 min -2,1 C 0,6 C 0,0 km/h (0 Bft)
03.04.2023 03:30 1,0 C 9,0 C 0,7 C 0,8 C 0,5 C 0,0 C 78 % 54 % 1027,9 hPa 0,0 l/m 0,0 km/h (0 Bft) NO 45 0 min -2,4 C 0,5 C 0,0 km/h (0 Bft)
03.04.2023 03:35 1,1 C 9,0 C 0,6 C 0,9 C 0,4 C 0,0 C 79 % 54 % 1027,9 hPa 0,0 l/m 0,0 km/h (0 Bft) N-NW 337 0 min -2,1 C 0,4 C 0,0 km/h (0 Bft)
03.04.2023 03:40 0,9 C 9,0 C 0,6 C 0,7 C 0,4 C 0,0 C 78 % 54 % 1027,9 hPa 0,0 l/m 0,0 km/h (0 Bft) O-NO 67 0 min -2,5 C 0,4 C 0,0 km/h (0 Bft)
03.04.2023 03:45 0,9 C 9,0 C 0,5 C 0,7 C 0,3 C 0,0 C 79 % 54 % 1027,6 hPa 0,0 l/m 0,2 km/h (0 Bft) O-NO 67 0 min -2,3 C 0,3 C 2,7 km/h (1 Bft)
03.04.2023 03:50 0,8 C 9,0 C 0,4 C 0,6 C 0,2 C 0,0 C 79 % 54 % 1027,6 hPa 0,0 l/m 0,0 km/h (0 Bft) NO 45 0 min -2,4 C 0,2 C 0,0 km/h (0 Bft)
03.04.2023 04:00 0,8 C 9,0 C 0,3 C 0,6 C 0,1 C 0,0 C 79 % 54 % 1027,6 hPa 0,0 l/m 0,5 km/h (0 Bft) O-NO 67 0 min -2,4 C 0,1 C 2,1 km/h (1 Bft)
03.04.2023 04:05 0,7 C 9,0 C 0,2 C 0,4 C -0,1 C 0,0 C 79 % 54 % 1027,8 hPa 0,0 l/m 0,5 km/h (0 Bft) O-NO 67 0 min -2,5 C -0,1 C 0,0 km/h (0 Bft)
03.04.2023 04:11 0,5 C 9,0 C 0,0 C 0,3 C -0,2 C 0,0 C 79 % 54 % 1027,8 hPa 0,0 l/m 0,6 km/h (0 Bft) N 0 0 min -2,7 C -0,2 C 1,6 km/h (1 Bft)
03.04.2023 04:26 0,4 C 9,0 C -0,3 C 0,0 C -0,8 C 0,0 C 79 % 56 % 1027,8 hPa 0,0 l/m 0,0 km/h (0 Bft) N-NO 22 0 min -2,8 C -0,8 C 0,0 km/h (0 Bft)
03.04.2023 04:46 0,0 C 8,9 C -0,5 C -0,3 C -1,0 C 0,0 C 79 % 56 % 1027,7 hPa 0,0 l/m 0,0 km/h (0 Bft) O-NO 67 0 min -3,2 C -1,0 C 0,0 km/h (0 Bft)
03.04.2023 04:50 0,0 C 8,9 C -0,5 C -0,3 C -1,0 C 0,0 C 79 % 56 % 1027,7 hPa 0,0 l/m 0,0 km/h (0 Bft) O-NO 67 0 min -3,2 C -1,0 C 0,0 km/h (0 Bft)
03.04.2023 04:55 0,0 C 8,9 C -0,5 C -0,3 C -1,0 C 0,0 C 79 % 57 % 1027,7 hPa 0,0 l/m 0,0 km/h (0 Bft) NO 45 0 min -3,2 C -1,0 C 0,0 km/h (0 Bft)
03.04.2023 05:00 -0,1 C 8,9 C -0,5 C -0,4 C -1,0 C 0,0 C 80 % 57 % 1027,7 hPa 0,0 l/m 0,0 km/h (0 Bft) O 90 0 min -3,1 C -1,0 C 0,0 km/h (0 Bft)
03.04.2023 05:05 -0,1 C 8,9 C -0,7 C -0,4 C -1,1 C 0,0 C 80 % 57 % 1028,2 hPa 0,0 l/m 0,0 km/h (0 Bft) NO 45 0 min -3,1 C -1,1 C 0,0 km/h (0 Bft)
03.04.2023 05:10 -0,1 C 8,9 C -0,7 C -0,4 C -1,1 C 0,0 C 80 % 57 % 1028,2 hPa 0,0 l/m 0,0 km/h (0 Bft) NO 45 0 min -3,1 C -1,1 C 0,0 km/h (0 Bft)
03.04.2023 05:15 -0,1 C 8,9 C -0,7 C -0,5 C -1,2 C 0,0 C 80 % 57 % 1028,2 hPa 0,0 l/m 0,0 km/h (0 Bft) NW 315 0 min -3,1 C -1,2 C 0,0 km/h (0 Bft)
03.04.2023 05:20 -0,3 C 8,8 C -0,8 C -0,6 C -1,3 C 0,0 C 80 % 58 % 1028,2 hPa 0,0 l/m 0,2 km/h (0 Bft) NO 45 0 min -3,3 C -1,3 C 1,8 km/h (1 Bft)
03.04.2023 05:25 -0,3 C 8,8 C -0,8 C -0,7 C -1,4 C 0,0 C 80 % 57 % 1028,2 hPa 0,0 l/m 0,2 km/h (0 Bft) NO 45 0 min -3,3 C -1,4 C 0,0 km/h (0 Bft)
03.04.2023 05:30 -0,3 C 8,8 C -0,9 C -0,7 C -1,4 C 0,0 C 80 % 58 % 1028,2 hPa 0,0 l/m 0,2 km/h (0 Bft) O-NO 67 0 min -3,3 C -1,4 C 0,0 km/h (0 Bft)
03.04.2023 05:35 -0,5 C 8,8 C -0,9 C -0,8 C -1,5 C 0,0 C 81 % 58 % 1028,2 hPa 0,0 l/m 0,2 km/h (0 Bft) O-NO 67 0 min -3,3 C -1,5 C 0,0 km/h (0 Bft)
03.04.2023 05:40 -0,5 C 8,8 C -0,9 C -0,8 C -1,5 C 0,0 C 81 % 58 % 1028,2 hPa 0,0 l/m 0,2 km/h (0 Bft) NO 45 0 min -3,3 C -1,5 C 0,0 km/h (0 Bft)
03.04.2023 05:45 -0,5 C 8,8 C -1,1 C -0,9 C -1,6 C 0,0 C 81 % 59 % 1028,4 hPa 0,0 l/m 0,0 km/h (0 Bft) N-NW 337 0 min -3,3 C -1,6 C 0,0 km/h (0 Bft)
03.04.2023 05:50 -0,5 C 8,8 C -1,2 C -0,9 C -1,6 C 0,0 C 81 % 59 % 1028,4 hPa 0,0 l/m 0,0 km/h (0 Bft) NO 45 0 min -3,3 C -1,6 C 0,0 km/h (0 Bft)
03.04.2023 05:55 -0,7 C 8,8 C -1,5 C -1,1 C -1,9 C 0,0 C 81 % 59 % 1028,4 hPa 0,0 l/m 0,0 km/h (0 Bft) NO 45 0 min -3,5 C -1,9 C 0,0 km/h (0 Bft)
03.04.2023 06:00 -0,7 C 8,8 C -1,4 C -1,1 C -2,0 C 0,0 C 81 % 59 % 1028,4 hPa 0,0 l/m 0,0 km/h (0 Bft) NO 45 0 min -3,5 C -2,0 C 0,0 km/h (0 Bft)
03.04.2023 06:05 -0,8 C 8,7 C -1,5 C -1,3 C -2,2 C 0,0 C 81 % 60 % 1028,4 hPa 0,0 l/m 0,0 km/h (0 Bft) NW 315 0 min -3,6 C -2,2 C 0,0 km/h (0 Bft)
03.04.2023 06:10 -0,7 C 8,7 C -1,5 C -1,2 C -2,3 C 0,0 C 81 % 60 % 1028,4 hPa 0,0 l/m 0,0 km/h (0 Bft) N-NW 337 0 min -3,5 C -2,3 C 0,0 km/h (0 Bft)
03.04.2023 06:15 -0,9 C 8,7 C -1,8 C -1,4 C -2,3 C 0,0 C 81 % 60 % 1028,4 hPa 0,0 l/m 0,0 km/h (0 Bft) N-NO 22 0 min -3,7 C -2,3 C 0,0 km/h (0 Bft)
03.04.2023 06:20 -1,0 C 8,7 C -2,0 C -1,5 C -2,5 C 0,0 C 81 % 61 % 1028,4 hPa 0,0 l/m 0,0 km/h (0 Bft) N-NW 337 0 min -3,8 C -2,5 C 0,0 km/h (0 Bft)
03.04.2023 06:25 -1,1 C 8,7 C -2,2 C -1,7 C -2,8 C 0,0 C 82 % 61 % 1028,3 hPa 0,0 l/m 0,0 km/h (0 Bft) NO 45 0 min -3,8 C -2,8 C 0,0 km/h (0 Bft)
03.04.2023 06:30 -1,2 C 8,7 C -2,2 C -1,8 C -2,9 C 0,0 C 82 % 61 % 1028,3 hPa 0,0 l/m 0,0 km/h (0 Bft) NO 45 0 min -3,9 C -2,9 C 0,0 km/h (0 Bft)
03.04.2023 06:35 -1,3 C 8,7 C -2,3 C -1,9 C -3,1 C 0,0 C 82 % 62 % 1028,3 hPa 0,0 l/m 0,0 km/h (0 Bft) N-NW 337 0 min -4,0 C -3,1 C 0,0 km/h (0 Bft)
03.04.2023 06:40 -1,3 C 8,7 C -2,3 C -1,9 C -3,2 C 0,0 C 82 % 62 % 1028,3 hPa 0,0 l/m 0,0 km/h (0 Bft) NW 315 0 min -4,0 C -3,2 C 0,0 km/h (0 Bft)
03.04.2023 06:45 -1,3 C 8,7 C -2,4 C -1,9 C -3,2 C 0,0 C 82 % 63 % 1028,4 hPa 0,0 l/m 0,0 km/h (0 Bft) O-NO 67 0 min -4,0 C -3,2 C 0,0 km/h (0 Bft)
03.04.2023 06:50 -1,4 C 8,7 C -2,4 C -2,0 C -3,2 C 0,0 C 82 % 64 % 1028,4 hPa 0,0 l/m 0,2 km/h (0 Bft) NO 45 0 min -4,1 C -3,2 C 0,0 km/h (0 Bft)
03.04.2023 06:55 -1,5 C 8,7 C -2,5 C -2,1 C -3,2 C 0,0 C 83 % 64 % 1028,4 hPa 0,0 l/m 0,2 km/h (0 Bft) W-SW 247 0 min -4,0 C -3,2 C 0,0 km/h (0 Bft)
03.04.2023 07:00 -1,5 C 8,7 C -2,6 C -2,1 C -3,3 C 0,0 C 83 % 64 % 1028,4 hPa 0,0 l/m 0,2 km/h (0 Bft) NW 315 0 min -4,0 C -3,3 C 0,0 km/h (0 Bft)
03.04.2023 07:05 -1,6 C 8,6 C -2,6 C -2,2 C -3,3 C 0,0 C 83 % 64 % 1028,8 hPa 0,0 l/m 0,0 km/h (0 Bft) N 360 0 min -4,1 C -3,3 C 0,0 km/h (0 Bft)
03.04.2023 07:10 -1,6 C 8,6 C -2,6 C -2,2 C -3,3 C 0,0 C 83 % 65 % 1028,8 hPa 0,0 l/m 0,0 km/h (0 Bft) N-NW 337 0 min -4,1 C -3,3 C 1,8 km/h (1 Bft)
03.04.2023 07:15 -1,7 C 8,6 C -2,6 C -2,0 C -2,5 C 0,0 C 83 % 65 % 1028,8 hPa 0,0 l/m 0,0 km/h (0 Bft) NO 45 0 min -4,2 C -2,5 C 0,0 km/h (0 Bft)
03.04.2023 07:20 -1,5 C 8,6 C -2,6 C -0,8 C -0,8 C 0,7 C 83 % 65 % 1028,8 hPa 0,0 l/m 0,0 km/h (0 Bft) NO 45 0 min -4,0 C -0,8 C 0,0 km/h (0 Bft)
03.04.2023 07:25 -1,5 C 8,6 C -1,8 C 1,0 C 1,0 C 2,5 C 83 % 66 % 1028,8 hPa 0,0 l/m 0,0 km/h (0 Bft) O-NO 67 5 min -4,0 C 1,0 C 0,0 km/h (0 Bft)
03.04.2023 07:30 -1,3 C 8,6 C -1,6 C 2,0 C 2,0 C 3,3 C 84 % 66 % 1028,8 hPa 0,0 l/m 0,0 km/h (0 Bft) N-NW 337 5 min -3,6 C 2,0 C 0,0 km/h (0 Bft)
03.04.2023 07:35 -1,1 C 8,5 C -1,3 C 3,0 C 3,0 C 4,1 C 84 % 65 % 1028,8 hPa 0,0 l/m 0,2 km/h (0 Bft) SO 135 5 min -3,4 C 3,0 C 0,0 km/h (0 Bft)
03.04.2023 07:40 -0,9 C 8,5 C -1,1 C 4,0 C 4,0 C 4,9 C 84 % 65 % 1028,8 hPa 0,0 l/m 0,2 km/h (0 Bft) N-NW 337 5 min -3,3 C 4,0 C 0,0 km/h (0 Bft)
03.04.2023 07:45 -0,9 C 8,5 C -0,9 C 5,2 C 5,2 C 6,1 C 84 % 63 % 1028,9 hPa 0,0 l/m 0,0 km/h (0 Bft) NW 315 5 min -3,3 C 5,2 C 0,0 km/h (0 Bft)
03.04.2023 07:50 -0,7 C 8,4 C -0,7 C 5,6 C 5,6 C 6,3 C 84 % 62 % 1028,9 hPa 0,0 l/m 0,0 km/h (0 Bft) N-NO 22 5 min -3,1 C 5,6 C 0,0 km/h (0 Bft)
03.04.2023 07:55 -0,5 C 8,4 C -0,5 C 6,2 C 6,2 C 6,7 C 84 % 61 % 1028,9 hPa 0,0 l/m 0,0 km/h (0 Bft) N 360 5 min -2,9 C 6,2 C 0,0 km/h (0 Bft)
03.04.2023 08:00 -0,7 C 8,4 C -0,5 C 6,5 C 6,5 C 7,2 C 84 % 60 % 1028,9 hPa 0,0 l/m 0,0 km/h (0 Bft) NO 45 5 min -3,1 C 6,5 C 0,0 km/h (0 Bft)
03.04.2023 08:05 -0,5 C 8,4 C -0,5 C 6,8 C 6,8 C 7,3 C 84 % 59 % 1029,6 hPa 0,0 l/m 0,2 km/h (0 Bft) SO 135 5 min -2,9 C 6,8 C 0,0 km/h (0 Bft)
03.04.2023 08:10 -0,6 C 8,4 C -0,4 C 7,2 C 7,2 C 7,8 C 84 % 58 % 1029,6 hPa 0,0 l/m 0,2 km/h (0 Bft) N 360 5 min -3,0 C 7,2 C 0,0 km/h (0 Bft)
03.04.2023 08:15 -0,5 C 8,4 C -0,4 C 7,6 C 7,6 C 8,1 C 83 % 58 % 1029,6 hPa 0,0 l/m 0,0 km/h (0 Bft) SW 225 5 min -3,0 C 7,6 C 0,0 km/h (0 Bft)
03.04.2023 08:20 -0,4 C 8,3 C -0,2 C 7,9 C 7,9 C 8,3 C 83 % 58 % 1029,6 hPa 0,0 l/m 0,0 km/h (0 Bft) W 270 5 min -2,9 C 7,9 C 0,0 km/h (0 Bft)
03.04.2023 08:25 0,1 C 8,3 C 0,1 C 8,7 C 8,7 C 8,6 C 84 % 57 % 1029,3 hPa 0,0 l/m 0,0 km/h (0 Bft) NW 315 5 min -2,3 C 8,7 C 0,0 km/h (0 Bft)
03.04.2023 08:30 0,3 C 8,3 C 0,2 C 8,6 C 8,6 C 8,3 C 83 % 56 % 1029,3 hPa 0,0 l/m 0,2 km/h (0 Bft) O-NO 67 5 min -2,2 C 8,6 C 0,0 km/h (0 Bft)
03.04.2023 08:35 0,5 C 8,3 C 0,2 C 7,6 C 7,6 C 7,1 C 83 % 54 % 1029,3 hPa 0,0 l/m 0,5 km/h (0 Bft) NO 45 5 min -2,0 C 7,6 C 1,9 km/h (1 Bft)
03.04.2023 08:40 0,5 C 8,3 C 0,2 C 6,0 C 6,0 C 5,5 C 82 % 54 % 1029,3 hPa 0,0 l/m 0,5 km/h (0 Bft) NO 45 5 min -2,2 C 6,0 C 4,2 km/h (1 Bft)
03.04.2023 08:45 0,3 C 8,3 C 0,3 C 3,8 C 3,8 C 3,5 C 81 % 54 % 1029,3 hPa 0,0 l/m 0,5 km/h (0 Bft) O-NO 67 5 min -2,6 C 3,8 C 2,1 km/h (1 Bft)
03.04.2023 08:50 0,1 C 8,3 C 0,3 C 3,0 C 3,0 C 2,9 C 81 % 54 % 1029,3 hPa 0,0 l/m 1,0 km/h (0 Bft) NO 45 0 min -2,8 C 3,0 C 5,3 km/h (1 Bft)
03.04.2023 08:55 -0,1 C 8,3 C 0,3 C 2,1 C 2,1 C 2,2 C 81 % 54 % 1029,3 hPa 0,0 l/m 1,1 km/h (1 Bft) O-NO 67 0 min -3,0 C 2,1 C 0,0 km/h (0 Bft)
03.04.2023 09:00 -0,1 C 8,3 C 0,3 C 1,9 C 1,9 C 2,0 C 81 % 52 % 1029,3 hPa 0,0 l/m 1,3 km/h (1 Bft) S 180 0 min -3,0 C 1,9 C 0,0 km/h (0 Bft)
03.04.2023 09:05 0,1 C 8,2 C 0,3 C 1,8 C 1,8 C 1,7 C 81 % 52 % 1030,2 hPa 0,0 l/m 1,1 km/h (1 Bft) O-NO 67 0 min -2,8 C 1,8 C 3,2 km/h (1 Bft)
03.04.2023 09:10 0,1 C 8,2 C 0,4 C 1,8 C 1,8 C 1,7 C 81 % 52 % 1030,2 hPa 0,0 l/m 1,1 km/h (1 Bft) N-NW 337 0 min -2,8 C 1,8 C 0,0 km/h (0 Bft)
03.04.2023 09:15 0,0 C 8,2 C 0,5 C 1,8 C 1,8 C 1,8 C 81 % 53 % 1030,2 hPa 0,0 l/m 1,3 km/h (1 Bft) NO 45 0 min -2,9 C 1,8 C 4,5 km/h (1 Bft)
03.04.2023 09:20 0,0 C 8,2 C 0,6 C 1,8 C 1,8 C 1,8 C 81 % 52 % 1030,2 hPa 0,0 l/m 1,3 km/h (1 Bft) O-NO 67 0 min -2,9 C 1,8 C 2,9 km/h (1 Bft)
03.04.2023 09:25 0,1 C 8,2 C 0,6 C 2,0 C 2,0 C 1,9 C 81 % 51 % 1029,7 hPa 0,0 l/m 1,1 km/h (1 Bft) NO 45 0 min -2,8 C 2,0 C 0,0 km/h (0 Bft)
03.04.2023 09:30 0,1 C 8,2 C 0,6 C 1,9 C 1,9 C 1,8 C 81 % 51 % 1029,7 hPa 0,0 l/m 1,0 km/h (0 Bft) N-NO 22 0 min -2,8 C 1,9 C 2,4 km/h (1 Bft)
03.04.2023 09:35 0,1 C 8,2 C 0,6 C 1,9 C 1,9 C 1,8 C 80 % 51 % 1029,7 hPa 0,0 l/m 1,6 km/h (1 Bft) O-NO 67 0 min -2,9 C 1,9 C 3,7 km/h (1 Bft)
03.04.2023 09:40 0,1 C 8,2 C 0,7 C 1,9 C 1,9 C 1,8 C 80 % 51 % 1029,7 hPa 0,0 l/m 1,9 km/h (1 Bft) NO 45 0 min -2,9 C 1,9 C 4,7 km/h (1 Bft)
03.04.2023 09:45 0,1 C 8,2 C 0,6 C 1,9 C 1,9 C 1,8 C 80 % 50 % 1029,7 hPa 0,0 l/m 1,9 km/h (1 Bft) O-NO 67 0 min -2,9 C 1,9 C 7,7 km/h (2 Bft)
03.04.2023 09:50 0,3 C 8,2 C 0,9 C 2,0 C 2,0 C 1,7 C 80 % 52 % 1029,7 hPa 0,0 l/m 1,6 km/h (1 Bft) SO 135 0 min -2,7 C 2,0 C 0,0 km/h (0 Bft)
03.04.2023 09:55 0,4 C 8,2 C 1,0 C 2,4 C 2,4 C 2,0 C 80 % 51 % 1029,7 hPa 0,0 l/m 0,6 km/h (0 Bft) O-NO 67 0 min -2,6 C 2,4 C 2,3 km/h (1 Bft)
03.04.2023 10:00 0,4 C 8,2 C 1,4 C 2,7 C 2,7 C 2,3 C 80 % 52 % 1029,7 hPa 0,0 l/m 0,6 km/h (0 Bft) NO 45 0 min -2,6 C 2,7 C 0,0 km/h (0 Bft)
03.04.2023 10:05 0,5 C 8,2 C 1,1 C 2,8 C 2,8 C 2,3 C 80 % 49 % 1030,1 hPa 0,0 l/m 2,3 km/h (1 Bft) O-NO 67 0 min -2,5 C 2,8 C 9,7 km/h (2 Bft)
03.04.2023 10:10 0,7 C 8,2 C 1,7 C 3,4 C 3,4 C 2,7 C 80 % 51 % 1030,1 hPa 0,0 l/m 3,1 km/h (1 Bft) O-NO 67 0 min -2,3 C 3,4 C 4,7 km/h (1 Bft)
03.04.2023 10:15 0,9 C 8,2 C 1,8 C 4,4 C 4,4 C 3,5 C 80 % 48 % 1030,1 hPa 0,0 l/m 2,9 km/h (1 Bft) NO 45 5 min -2,2 C 4,4 C 2,1 km/h (1 Bft)
03.04.2023 10:20 0,8 C 8,2 C 1,4 C 4,2 C 4,2 C 3,4 C 79 % 47 % 1030,1 hPa 0,0 l/m 2,1 km/h (1 Bft) NO 45 5 min -2,4 C 4,2 C 2,9 km/h (1 Bft)
03.04.2023 10:25 0,7 C 8,2 C 1,2 C 3,5 C 3,5 C 2,8 C 79 % 49 % 1030,0 hPa 0,0 l/m 0,8 km/h (0 Bft) O-NO 67 0 min -2,5 C 3,5 C 0,0 km/h (0 Bft)
03.04.2023 10:30 0,8 C 8,1 C 1,6 C 3,3 C 3,3 C 2,5 C 79 % 51 % 1030,0 hPa 0,0 l/m 0,5 km/h (0 Bft) O-NO 67 0 min -2,4 C 3,3 C 0,0 km/h (0 Bft)
03.04.2023 10:35 0,9 C 8,1 C 2,1 C 4,0 C 4,0 C 3,1 C 79 % 50 % 1030,0 hPa 0,0 l/m 0,5 km/h (0 Bft) N 360 0 min -2,3 C 4,0 C 0,0 km/h (0 Bft)
03.04.2023 10:40 1,1 C 8,1 C 2,1 C 4,6 C 4,6 C 3,5 C 79 % 47 % 1030,0 hPa 0,0 l/m 0,5 km/h (0 Bft) N-NW 337 5 min -2,1 C 4,6 C 0,0 km/h (0 Bft)
03.04.2023 10:45 1,1 C 8,1 C 1,7 C 4,0 C 4,0 C 2,9 C 78 % 45 % 1030,0 hPa 0,0 l/m 0,5 km/h (0 Bft) NO 45 0 min -2,3 C 4,0 C 0,0 km/h (0 Bft)
03.04.2023 10:50 1,2 C 8,1 C 2,1 C 4,1 C 4,1 C 2,9 C 77 % 47 % 1030,0 hPa 0,0 l/m 0,5 km/h (0 Bft) O-NO 67 0 min -2,4 C 4,1 C 0,0 km/h (0 Bft)
03.04.2023 10:55 1,3 C 8,0 C 2,4 C 4,3 C 4,3 C 3,0 C 77 % 45 % 1030,0 hPa 0,0 l/m 1,1 km/h (1 Bft) O-NO 67 0 min -2,3 C 4,3 C 11,7 km/h (2 Bft)
03.04.2023 11:00 1,5 C 8,0 C 2,5 C 4,6 C 4,6 C 3,1 C 76 % 44 % 1030,0 hPa 0,0 l/m 2,6 km/h (1 Bft) O-NO 67 0 min -2,3 C 4,6 C 8,5 km/h (2 Bft)
03.04.2023 11:05 1,5 C 8,0 C 2,2 C 4,2 C 4,2 C 2,7 C 75 % 43 % 1030,4 hPa 0,0 l/m 2,1 km/h (1 Bft) N-NO 22 0 min -2,4 C 4,2 C 2,6 km/h (1 Bft)
03.04.2023 11:10 1,6 C 8,0 C 2,9 C 4,4 C 4,4 C 2,8 C 76 % 44 % 1030,4 hPa 0,0 l/m 0,8 km/h (0 Bft) N-NO 22 0 min -2,2 C 4,4 C 0,0 km/h (0 Bft)
03.04.2023 11:15 1,9 C 8,0 C 3,3 C 5,5 C 5,5 C 3,6 C 74 % 42 % 1030,4 hPa 0,0 l/m 2,4 km/h (1 Bft) O-NO 67 5 min -2,2 C 5,5 C 11,9 km/h (2 Bft)
03.04.2023 11:20 1,9 C 8,0 C 3,7 C 5,4 C 5,4 C 3,5 C 73 % 41 % 1030,4 hPa 0,0 l/m 3,9 km/h (1 Bft) O-NO 67 5 min -2,4 C 5,4 C 0,0 km/h (0 Bft)
03.04.2023 11:25 2,1 C 8,0 C 4,3 C 6,6 C 6,6 C 4,5 C 73 % 38 % 1030,4 hPa 0,0 l/m 3,2 km/h (1 Bft) S 180 5 min -2,2 C 6,6 C 2,6 km/h (1 Bft)
03.04.2023 11:30 2,4 C 8,0 C 5,5 C 6,8 C 6,8 C 4,4 C 73 % 41 % 1030,4 hPa 0,0 l/m 1,3 km/h (1 Bft) W 270 5 min -1,9 C 6,8 C 2,3 km/h (1 Bft)
03.04.2023 11:35 2,7 C 8,0 C 5,3 C 7,4 C 7,4 C 4,7 C 72 % 38 % 1030,4 hPa 0,0 l/m 0,6 km/h (0 Bft) NW 315 5 min -1,8 C 7,4 C 0,0 km/h (0 Bft)
03.04.2023 11:40 2,4 C 8,0 C 4,6 C 6,8 C 6,8 C 4,4 C 71 % 37 % 1030,4 hPa 0,0 l/m 1,4 km/h (1 Bft) W 270 5 min -2,3 C 6,8 C 3,1 km/h (1 Bft)
03.04.2023 11:45 2,4 C 8,1 C 4,4 C 6,3 C 6,3 C 3,9 C 70 % 36 % 1030,9 hPa 0,0 l/m 1,4 km/h (1 Bft) NW 315 5 min -2,5 C 6,3 C 0,0 km/h (0 Bft)
03.04.2023 11:50 2,4 C 8,0 C 4,1 C 6,0 C 6,0 C 3,6 C 70 % 37 % 1030,9 hPa 0,0 l/m 1,0 km/h (0 Bft) NO 45 5 min -2,5 C 6,0 C 0,0 km/h (0 Bft)
03.04.2023 11:55 2,4 C 8,1 C 4,0 C 5,5 C 5,5 C 3,1 C 70 % 37 % 1030,9 hPa 0,0 l/m 0,8 km/h (0 Bft) N-NO 22 0 min -2,5 C 5,5 C 0,0 km/h (0 Bft)
03.04.2023 12:00 2,5 C 8,1 C 4,4 C 5,8 C 5,8 C 3,3 C 70 % 37 % 1030,9 hPa 0,0 l/m 0,8 km/h (0 Bft) W 270 5 min -2,4 C 5,8 C 4,5 km/h (1 Bft)
03.04.2023 12:05 2,6 C 8,1 C 4,5 C 6,1 C 6,1 C 3,5 C 69 % 35 % 1030,5 hPa 0,0 l/m 0,6 km/h (0 Bft) W 270 5 min -2,5 C 6,1 C 2,9 km/h (1 Bft)
03.04.2023 12:10 2,7 C 8,1 C 4,2 C 6,2 C 6,2 C 3,5 C 68 % 35 % 1030,5 hPa 0,0 l/m 0,8 km/h (0 Bft) N-NW 337 5 min -2,6 C 6,2 C 4,5 km/h (1 Bft)
03.04.2023 12:15 2,6 C 8,1 C 3,9 C 5,8 C 5,8 C 3,2 C 67 % 36 % 1030,5 hPa 0,0 l/m 1,3 km/h (1 Bft) W-SW 247 0 min -2,9 C 5,8 C 2,1 km/h (1 Bft)
03.04.2023 12:20 2,7 C 8,1 C 3,6 C 5,6 C 5,6 C 2,9 C 67 % 34 % 1030,5 hPa 0,0 l/m 1,3 km/h (1 Bft) O-NO 67 0 min -2,8 C 5,6 C 2,4 km/h (1 Bft)
03.04.2023 12:25 2,7 C 8,1 C 3,3 C 5,3 C 5,3 C 2,6 C 66 % 34 % 1030,7 hPa 0,0 l/m 0,6 km/h (0 Bft) O-SO 112 0 min -3,0 C 5,3 C 0,0 km/h (0 Bft)
03.04.2023 12:30 2,7 C 8,1 C 3,1 C 5,4 C 5,4 C 2,7 C 66 % 35 % 1030,7 hPa 0,0 l/m 0,6 km/h (0 Bft) NW 315 0 min -3,0 C 5,4 C 2,7 km/h (1 Bft)
03.04.2023 12:35 2,7 C 8,1 C 4,6 C 5,8 C 5,8 C 3,1 C 65 % 35 % 1030,7 hPa 0,0 l/m 0,5 km/h (0 Bft) O-NO 67 0 min -3,2 C 5,8 C 4,0 km/h (1 Bft)
03.04.2023 12:40 2,9 C 8,1 C 4,4 C 7,0 C 7,0 C 4,1 C 65 % 33 % 1030,7 hPa 0,0 l/m 1,3 km/h (1 Bft) O-NO 67 5 min -3,0 C 7,0 C 2,9 km/h (1 Bft)
03.04.2023 12:45 3,1 C 8,1 C 5,1 C 7,7 C 7,7 C 4,6 C 65 % 34 % 1030,0 hPa 0,0 l/m 2,4 km/h (1 Bft) O-NO 67 5 min -2,8 C 7,7 C 4,8 km/h (1 Bft)
03.04.2023 12:50 3,3 C 8,1 C 5,8 C 8,9 C 8,9 C 5,6 C 64 % 34 % 1030,0 hPa 0,0 l/m 2,1 km/h (1 Bft) NO 45 5 min -2,8 C 8,9 C 6,3 km/h (2 Bft)
03.04.2023 12:55 3,5 C 8,2 C 5,7 C 9,5 C 9,5 C 6,0 C 63 % 31 % 1030,0 hPa 0,0 l/m 2,6 km/h (1 Bft) N-NO 22 5 min -2,9 C 9,5 C 5,8 km/h (2 Bft)
03.04.2023 13:00 3,4 C 8,2 C 4,5 C 8,8 C 8,8 C 5,4 C 61 % 30 % 1030,0 hPa 0,0 l/m 2,4 km/h (1 Bft) SO 135 5 min -3,4 C 8,8 C 0,0 km/h (0 Bft)
03.04.2023 13:05 3,6 C 8,2 C 5,5 C 8,7 C 8,7 C 5,1 C 61 % 33 % 1030,5 hPa 0,0 l/m 1,8 km/h (1 Bft) O-NO 67 5 min -3,2 C 8,7 C 0,0 km/h (0 Bft)
03.04.2023 13:10 3,6 C 8,2 C 5,5 C 8,7 C 8,7 C 5,1 C 62 % 33 % 1030,5 hPa 0,0 l/m 1,8 km/h (1 Bft) O-NO 67 5 min -3,0 C 8,7 C 0,0 km/h (0 Bft)
03.04.2023 13:15 3,6 C 8,2 C 5,5 C 8,7 C 8,7 C 5,1 C 62 % 33 % 1030,5 hPa 0,0 l/m 1,8 km/h (1 Bft) O-NO 67 5 min -3,0 C 8,7 C 0,0 km/h (0 Bft)
03.04.2023 13:20 4,1 C 8,2 C 5,4 C 10,0 C 10,0 C 5,9 C 59 % 29 % 1030,5 hPa 0,0 l/m 1,6 km/h (1 Bft) SW 225 5 min -3,2 C 10,0 C 0,0 km/h (0 Bft)
03.04.2023 13:25 3,9 C 8,2 C 5,1 C 8,5 C 8,5 C 4,6 C 59 % 29 % 1030,2 hPa 0,0 l/m 0,5 km/h (0 Bft) N-NW 337 5 min -3,4 C 8,5 C 0,0 km/h (0 Bft)
03.04.2023 13:30 3,9 C 8,2 C 5,1 C 7,9 C 7,9 C 4,0 C 59 % 31 % 1030,2 hPa 0,0 l/m 0,6 km/h (0 Bft) N-NW 337 5 min -3,4 C 7,9 C 0,0 km/h (0 Bft)
03.04.2023 13:35 3,9 C 8,2 C 4,6 C 7,8 C 7,8 C 3,9 C 59 % 30 % 1030,2 hPa 0,0 l/m 0,3 km/h (0 Bft) N-NW 337 5 min -3,4 C 7,8 C 0,0 km/h (0 Bft)
03.04.2023 13:40 3,7 C 8,2 C 4,2 C 7,1 C 7,1 C 3,4 C 59 % 31 % 1030,2 hPa 0,0 l/m 1,0 km/h (0 Bft) W 270 5 min -3,6 C 7,1 C 4,0 km/h (1 Bft)
03.04.2023 13:45 3,7 C 8,2 C 4,2 C 6,5 C 6,5 C 2,8 C 60 % 32 % 1030,0 hPa 0,0 l/m 1,0 km/h (0 Bft) S-SO 157 0 min -3,3 C 6,5 C 0,0 km/h (0 Bft)
03.04.2023 13:50 3,6 C 8,2 C 3,9 C 6,2 C 6,2 C 2,6 C 60 % 31 % 1030,0 hPa 0,0 l/m 0,6 km/h (0 Bft) O-NO 67 0 min -3,4 C 6,2 C 5,1 km/h (1 Bft)
03.04.2023 13:55 3,5 C 8,2 C 5,7 C 6,5 C 6,5 C 3,0 C 60 % 33 % 1030,0 hPa 0,0 l/m 0,6 km/h (0 Bft) NW 315 0 min -3,5 C 6,5 C 0,0 km/h (0 Bft)
03.04.2023 14:00 4,1 C 8,2 C 6,6 C 9,1 C 9,1 C 5,0 C 60 % 29 % 1030,0 hPa 0,0 l/m 1,1 km/h (1 Bft) O-NO 67 5 min -3,0 C 9,1 C 7,4 km/h (2 Bft)
03.04.2023 14:05 4,2 C 8,2 C 5,1 C 9,0 C 9,0 C 4,8 C 58 % 28 % 1029,7 hPa 0,0 l/m 1,1 km/h (1 Bft) O-NO 67 5 min -3,3 C 9,0 C 0,0 km/h (0 Bft)
03.04.2023 14:10 4,0 C 8,2 C 5,0 C 8,0 C 8,0 C 4,0 C 57 % 29 % 1029,7 hPa 0,0 l/m 1,0 km/h (0 Bft) SO 135 5 min -3,7 C 8,0 C 0,0 km/h (0 Bft)
03.04.2023 14:15 4,3 C 8,2 C 5,0 C 8,2 C 8,2 C 3,9 C 57 % 29 % 1029,7 hPa 0,0 l/m 0,5 km/h (0 Bft) O-NO 67 5 min -3,5 C 8,2 C 0,0 km/h (0 Bft)
03.04.2023 14:20 4,1 C 8,3 C 4,4 C 7,5 C 7,5 C 3,4 C 57 % 29 % 1029,7 hPa 0,0 l/m 0,8 km/h (0 Bft) O-NO 67 5 min -3,6 C 7,5 C 2,6 km/h (1 Bft)
03.04.2023 14:25 3,9 C 8,3 C 5,3 C 6,7 C 6,7 C 2,8 C 58 % 32 % 1030,4 hPa 0,0 l/m 0,8 km/h (0 Bft) NO 45 0 min -3,6 C 6,7 C 0,0 km/h (0 Bft)
03.04.2023 14:30 4,4 C 8,3 C 7,4 C 9,4 C 9,4 C 5,0 C 59 % 32 % 1030,4 hPa 0,0 l/m 0,6 km/h (0 Bft) W 270 5 min -2,9 C 9,4 C 3,2 km/h (1 Bft)
03.04.2023 14:35 4,5 C 8,3 C 5,8 C 9,9 C 9,9 C 5,4 C 57 % 28 % 1030,4 hPa 0,0 l/m 1,0 km/h (0 Bft) N-NO 22 5 min -3,3 C 9,9 C 2,7 km/h (1 Bft)
03.04.2023 14:40 4,3 C 8,3 C 5,3 C 8,7 C 8,7 C 4,4 C 56 % 30 % 1030,4 hPa 0,0 l/m 1,1 km/h (1 Bft) SO 135 5 min -3,7 C 8,7 C 2,3 km/h (1 Bft)
03.04.2023 14:45 4,2 C 8,3 C 5,0 C 7,7 C 7,7 C 3,5 C 57 % 30 % 1029,9 hPa 0,0 l/m 0,8 km/h (0 Bft) W 270 5 min -3,5 C 7,7 C 12,1 km/h (2 Bft)
03.04.2023 14:50 4,1 C 8,3 C 4,4 C 7,1 C 7,1 C 3,0 C 58 % 30 % 1029,9 hPa 0,0 l/m 0,6 km/h (0 Bft) O-NO 67 0 min -3,4 C 7,1 C 2,3 km/h (1 Bft)
03.04.2023 14:55 4,3 C 8,3 C 5,5 C 7,9 C 7,9 C 3,6 C 59 % 32 % 1029,9 hPa 0,0 l/m 0,2 km/h (0 Bft) SO 135 5 min -3,0 C 7,9 C 0,0 km/h (0 Bft)
03.04.2023 15:00 4,8 C 8,3 C 6,5 C 10,5 C 10,5 C 5,7 C 59 % 32 % 1029,9 hPa 0,0 l/m 0,3 km/h (0 Bft) NW 315 5 min -2,5 C 10,5 C 2,6 km/h (1 Bft)
03.04.2023 15:05 4,9 C 8,3 C 5,7 C 10,5 C 10,5 C 5,6 C 56 % 30 % 1029,3 hPa 0,0 l/m 0,8 km/h (0 Bft) NO 45 5 min -3,1 C 10,5 C 1,6 km/h (1 Bft)
03.04.2023 15:10 4,5 C 8,3 C 5,0 C 9,1 C 9,1 C 4,6 C 56 % 31 % 1029,3 hPa 0,0 l/m 1,4 km/h (1 Bft) NO 45 5 min -3,5 C 9,1 C 0,0 km/h (0 Bft)
03.04.2023 15:15 4,3 C 8,3 C 4,5 C 7,5 C 7,5 C 3,2 C 57 % 30 % 1029,3 hPa 0,0 l/m 1,4 km/h (1 Bft) O 90 0 min -3,5 C 7,5 C 0,0 km/h (0 Bft)
03.04.2023 15:20 4,3 C 8,4 C 5,2 C 8,0 C 8,0 C 3,7 C 58 % 33 % 1029,3 hPa 0,0 l/m 1,3 km/h (1 Bft) NO 45 5 min -3,2 C 8,0 C 6,6 km/h (2 Bft)
03.04.2023 15:25 4,7 C 8,4 C 5,7 C 10,2 C 10,2 C 5,5 C 59 % 31 % 1029,2 hPa 0,0 l/m 1,4 km/h (1 Bft) O-NO 67 5 min -2,6 C 10,2 C 3,2 km/h (1 Bft)
03.04.2023 15:30 4,7 C 8,4 C 5,2 C 9,8 C 9,8 C 5,1 C 56 % 30 % 1029,2 hPa 0,0 l/m 2,3 km/h (1 Bft) O-NO 67 5 min -3,3 C 9,8 C 0,0 km/h (0 Bft)
03.04.2023 15:35 4,5 C 8,4 C 5,1 C 8,3 C 8,3 C 3,8 C 56 % 30 % 1029,2 hPa 0,0 l/m 1,3 km/h (1 Bft) S-SO 157 5 min -3,5 C 8,3 C 0,0 km/h (0 Bft)
03.04.2023 15:40 4,4 C 8,4 C 5,1 C 7,6 C 7,6 C 3,2 C 56 % 31 % 1029,2 hPa 0,0 l/m 0,2 km/h (0 Bft) S-SO 157 0 min -3,6 C 7,6 C 0,0 km/h (0 Bft)
03.04.2023 15:45 4,3 C 8,4 C 4,5 C 7,1 C 7,1 C 2,8 C 55 % 29 % 1029,8 hPa 0,0 l/m 1,0 km/h (0 Bft) O-NO 67 0 min -3,9 C 7,1 C 0,0 km/h (0 Bft)
03.04.2023 15:50 4,3 C 8,4 C 4,6 C 6,8 C 6,8 C 2,5 C 55 % 30 % 1029,8 hPa 0,0 l/m 1,0 km/h (0 Bft) O-SO 112 0 min -3,9 C 6,8 C 1,9 km/h (1 Bft)
03.04.2023 15:55 4,2 C 8,4 C 5,0 C 6,8 C 6,8 C 2,6 C 56 % 30 % 1029,8 hPa 0,0 l/m 0,6 km/h (0 Bft) NO 45 0 min -3,8 C 6,8 C 3,5 km/h (1 Bft)
03.04.2023 16:00 4,3 C 8,4 C 4,6 C 7,0 C 7,0 C 2,7 C 55 % 29 % 1029,8 hPa 0,0 l/m 0,6 km/h (0 Bft) N-NW 337 0 min -3,9 C 7,0 C 0,0 km/h (0 Bft)
03.04.2023 16:05 4,3 C 8,4 C 4,8 C 6,6 C 6,6 C 2,3 C 56 % 31 % 1029,6 hPa 0,0 l/m 0,5 km/h (0 Bft) O 90 0 min -3,7 C 6,6 C 0,0 km/h (0 Bft)
03.04.2023 16:10 4,3 C 8,4 C 4,4 C 6,3 C 6,3 C 2,0 C 56 % 29 % 1029,6 hPa 0,0 l/m 1,1 km/h (1 Bft) O-NO 67 0 min -3,7 C 6,3 C 4,3 km/h (1 Bft)
03.04.2023 16:15 4,0 C 8,4 C 4,4 C 5,8 C 5,8 C 1,8 C 57 % 30 % 1029,6 hPa 0,0 l/m 1,4 km/h (1 Bft) NO 45 0 min -3,7 C 5,8 C 0,0 km/h (0 Bft)
03.04.2023 16:20 4,1 C 8,4 C 4,6 C 5,9 C 5,9 C 1,8 C 57 % 31 % 1029,6 hPa 0,0 l/m 0,6 km/h (0 Bft) S 180 0 min -3,6 C 5,9 C 0,0 km/h (0 Bft)
03.04.2023 16:25 4,2 C 8,4 C 4,6 C 6,1 C 6,1 C 1,9 C 58 % 31 % 1030,1 hPa 0,0 l/m 0,2 km/h (0 Bft) O 90 0 min -3,3 C 6,1 C 0,0 km/h (0 Bft)
03.04.2023 16:30 4,3 C 8,4 C 4,5 C 6,1 C 6,1 C 1,8 C 58 % 31 % 1030,1 hPa 0,0 l/m 0,0 km/h (0 Bft) O-NO 67 0 min -3,2 C 6,1 C 1,9 km/h (1 Bft)
03.04.2023 16:35 4,1 C 8,4 C 4,2 C 5,7 C 5,7 C 1,6 C 58 % 30 % 1030,1 hPa 0,0 l/m 0,5 km/h (0 Bft) O-NO 67 0 min -3,4 C 5,7 C 2,9 km/h (1 Bft)
03.04.2023 16:40 4,0 C 8,4 C 4,1 C 5,5 C 5,5 C 1,5 C 57 % 30 % 1030,1 hPa 0,0 l/m 1,0 km/h (0 Bft) O-NO 67 0 min -3,7 C 5,5 C 2,6 km/h (1 Bft)
03.04.2023 16:45 3,9 C 8,4 C 4,3 C 5,5 C 5,5 C 1,6 C 57 % 29 % 1029,8 hPa 0,0 l/m 1,0 km/h (0 Bft) N-NW 337 0 min -3,8 C 5,5 C 1,6 km/h (1 Bft)
03.04.2023 16:50 3,9 C 8,4 C 4,5 C 5,6 C 5,6 C 1,7 C 57 % 30 % 1029,8 hPa 0,0 l/m 0,8 km/h (0 Bft) SO 135 0 min -3,8 C 5,6 C 0,0 km/h (0 Bft)
03.04.2023 16:55 4,0 C 8,4 C 4,7 C 6,0 C 6,0 C 2,0 C 57 % 30 % 1029,8 hPa 0,0 l/m 0,6 km/h (0 Bft) NO 45 0 min -3,7 C 6,0 C 0,0 km/h (0 Bft)
03.04.2023 17:00 4,1 C 8,4 C 4,7 C 6,3 C 6,3 C 2,2 C 57 % 30 % 1029,8 hPa 0,0 l/m 0,5 km/h (0 Bft) SO 135 0 min -3,6 C 6,3 C 0,0 km/h (0 Bft)
03.04.2023 17:05 4,0 C 8,4 C 4,2 C 6,0 C 6,0 C 2,0 C 57 % 30 % 1029,8 hPa 0,0 l/m 1,0 km/h (0 Bft) O-NO 67 0 min -3,7 C 6,0 C 4,8 km/h (1 Bft)
03.04.2023 17:10 3,9 C 8,4 C 4,1 C 5,6 C 5,6 C 1,7 C 57 % 30 % 1029,8 hPa 0,0 l/m 1,9 km/h (1 Bft) O-NO 67 0 min -3,8 C 5,6 C 3,1 km/h (1 Bft)
03.04.2023 17:15 3,7 C 8,4 C 4,0 C 5,3 C 5,3 C 1,6 C 57 % 30 % 1029,8 hPa 0,0 l/m 2,1 km/h (1 Bft) O-NO 67 0 min -4,0 C 5,3 C 5,3 km/h (1 Bft)
03.04.2023 17:20 3,7 C 8,4 C 4,2 C 5,3 C 5,3 C 1,6 C 58 % 31 % 1029,8 hPa 0,0 l/m 1,4 km/h (1 Bft) NW 315 0 min -3,8 C 5,3 C 0,0 km/h (0 Bft)
03.04.2023 17:25 3,8 C 8,4 C 4,0 C 5,4 C 5,4 C 1,6 C 58 % 30 % 1029,6 hPa 0,0 l/m 0,5 km/h (0 Bft) O-NO 67 0 min -3,7 C 5,4 C 0,0 km/h (0 Bft)
03.04.2023 17:30 3,7 C 8,4 C 3,8 C 5,3 C 5,3 C 1,6 C 58 % 30 % 1029,6 hPa 0,0 l/m 0,2 km/h (0 Bft) O-SO 112 0 min -3,8 C 5,3 C 2,9 km/h (1 Bft)
03.04.2023 17:35 3,7 C 8,4 C 3,8 C 5,0 C 5,0 C 1,3 C 58 % 31 % 1029,6 hPa 0,0 l/m 0,5 km/h (0 Bft) O-NO 67 0 min -3,8 C 5,0 C 3,9 km/h (1 Bft)
03.04.2023 17:40 3,6 C 8,4 C 3,6 C 4,7 C 4,7 C 1,1 C 58 % 31 % 1029,6 hPa 0,0 l/m 1,3 km/h (1 Bft) O-SO 112 0 min -3,9 C 4,7 C 1,6 km/h (1 Bft)
03.04.2023 17:45 3,4 C 8,4 C 3,5 C 4,4 C 4,4 C 1,0 C 58 % 30 % 1029,6 hPa 0,0 l/m 1,1 km/h (1 Bft) NO 45 0 min -4,1 C 4,4 C 0,0 km/h (0 Bft)
03.04.2023 17:50 3,5 C 8,4 C 3,5 C 4,4 C 4,4 C 0,9 C 58 % 30 % 1029,6 hPa 0,0 l/m 0,3 km/h (0 Bft) NO 45 0 min -4,0 C 4,4 C 2,6 km/h (1 Bft)
03.04.2023 17:55 3,5 C 8,4 C 3,6 C 4,5 C 4,5 C 1,0 C 58 % 30 % 1029,6 hPa 0,0 l/m 0,2 km/h (0 Bft) W-NW 292 0 min -4,0 C 4,5 C 0,0 km/h (0 Bft)
03.04.2023 18:00 3,4 C 8,4 C 3,5 C 4,5 C 4,5 C 1,1 C 57 % 29 % 1029,6 hPa 0,0 l/m 0,2 km/h (0 Bft) O-NO 67 0 min -4,3 C 4,5 C 0,0 km/h (0 Bft)
03.04.2023 18:05 3,5 C 8,4 C 3,4 C 4,2 C 4,2 C 0,7 C 57 % 30 % 1029,6 hPa 0,0 l/m 0,5 km/h (0 Bft) O-NO 67 0 min -4,2 C 4,2 C 0,0 km/h (0 Bft)
03.04.2023 18:10 3,3 C 8,4 C 3,2 C 4,1 C 4,1 C 0,8 C 58 % 30 % 1029,6 hPa 0,0 l/m 0,5 km/h (0 Bft) N-NO 22 0 min -4,2 C 4,1 C 0,0 km/h (0 Bft)
03.04.2023 18:15 3,3 C 8,5 C 3,1 C 3,8 C 3,8 C 0,5 C 58 % 30 % 1029,6 hPa 0,0 l/m 0,3 km/h (0 Bft) O 90 0 min -4,2 C 3,8 C 0,0 km/h (0 Bft)
03.04.2023 18:20 3,1 C 8,5 C 3,1 C 3,6 C 3,6 C 0,5 C 59 % 30 % 1029,6 hPa 0,0 l/m 0,8 km/h (0 Bft) O-NO 67 0 min -4,1 C 3,6 C 3,7 km/h (1 Bft)
03.04.2023 18:25 3,1 C 8,5 C 2,9 C 3,5 C 3,5 C 0,4 C 59 % 31 % 1029,4 hPa 0,0 l/m 1,0 km/h (0 Bft) O 90 0 min -4,1 C 3,5 C 3,7 km/h (1 Bft)
03.04.2023 18:30 3,1 C 8,5 C 2,8 C 3,3 C 3,3 C 0,2 C 60 % 32 % 1029,4 hPa 0,0 l/m 0,5 km/h (0 Bft) N-NO 22 0 min -3,9 C 3,3 C 0,0 km/h (0 Bft)
03.04.2023 18:35 3,1 C 8,5 C 2,8 C 3,2 C 3,2 C 0,1 C 60 % 33 % 1029,4 hPa 0,0 l/m 0,2 km/h (0 Bft) NO 45 0 min -3,9 C 3,2 C 0,0 km/h (0 Bft)
03.04.2023 18:40 3,0 C 8,5 C 2,8 C 3,2 C 3,2 C 0,2 C 60 % 32 % 1029,4 hPa 0,0 l/m 0,2 km/h (0 Bft) N-NO 22 0 min -4,0 C 3,2 C 0,0 km/h (0 Bft)
03.04.2023 18:45 2,9 C 8,5 C 2,7 C 3,0 C 3,0 C 0,1 C 60 % 32 % 1030,2 hPa 0,0 l/m 0,0 km/h (0 Bft) O-NO 67 0 min -4,1 C 3,0 C 0,0 km/h (0 Bft)
03.04.2023 18:50 2,8 C 8,5 C 2,7 C 3,0 C 3,0 C 0,2 C 60 % 32 % 1030,2 hPa 0,0 l/m 0,0 km/h (0 Bft) NO 45 0 min -4,2 C 3,0 C 0,0 km/h (0 Bft)
03.04.2023 18:55 2,8 C 8,5 C 2,7 C 3,0 C 3,0 C 0,2 C 59 % 31 % 1030,2 hPa 0,0 l/m 0,3 km/h (0 Bft) N-NO 22 0 min -4,4 C 3,0 C 0,0 km/h (0 Bft)
03.04.2023 19:00 2,9 C 8,5 C 2,7 C 3,0 C 3,0 C 0,1 C 59 % 31 % 1030,2 hPa 0,0 l/m 0,5 km/h (0 Bft) N-NO 22 0 min -4,3 C 3,0 C 0,0 km/h (0 Bft)
03.04.2023 19:05 2,8 C 8,5 C 2,6 C 2,9 C 2,9 C 0,1 C 59 % 31 % 1029,7 hPa 0,0 l/m 0,3 km/h (0 Bft) NO 45 0 min -4,4 C 2,9 C 1,9 km/h (1 Bft)
03.04.2023 19:10 2,8 C 8,5 C 2,6 C 2,8 C 2,8 C 0,0 C 58 % 31 % 1029,7 hPa 0,0 l/m 0,5 km/h (0 Bft) O-NO 67 0 min -4,6 C 2,8 C 0,0 km/h (0 Bft)
03.04.2023 19:15 2,7 C 8,5 C 2,5 C 2,7 C 2,7 C 0,0 C 58 % 30 % 1029,7 hPa 0,0 l/m 0,6 km/h (0 Bft) NO 45 0 min -4,7 C 2,7 C 0,0 km/h (0 Bft)
03.04.2023 19:20 2,6 C 8,5 C 2,4 C 2,6 C 2,6 C 0,0 C 58 % 29 % 1029,7 hPa 0,0 l/m 0,5 km/h (0 Bft) O-NO 67 0 min -4,8 C 2,6 C 0,0 km/h (0 Bft)
03.04.2023 19:25 2,7 C 8,5 C 2,4 C 2,6 C 2,4 C 0,0 C 58 % 30 % 1029,9 hPa 0,0 l/m 0,6 km/h (0 Bft) NO 45 0 min -4,7 C 2,4 C 2,6 km/h (1 Bft)
03.04.2023 19:30 2,5 C 8,5 C 2,3 C 2,5 C 2,4 C 0,0 C 58 % 30 % 1029,9 hPa 0,0 l/m 0,5 km/h (0 Bft) NO 45 0 min -4,9 C 2,4 C 0,0 km/h (0 Bft)
03.04.2023 19:35 2,5 C 8,5 C 2,2 C 2,4 C 2,3 C 0,0 C 58 % 30 % 1029,9 hPa 0,0 l/m 0,3 km/h (0 Bft) N 360 0 min -4,9 C 2,3 C 0,0 km/h (0 Bft)
03.04.2023 19:40 2,5 C 8,5 C 2,2 C 2,4 C 2,3 C 0,0 C 58 % 30 % 1029,9 hPa 0,0 l/m 0,2 km/h (0 Bft) NW 315 0 min -4,9 C 2,3 C 0,0 km/h (0 Bft)
03.04.2023 19:45 2,4 C 8,5 C 2,1 C 2,3 C 2,2 C 0,0 C 58 % 30 % 1030,4 hPa 0,0 l/m 0,0 km/h (0 Bft) NO 45 0 min -5,0 C 2,2 C 0,0 km/h (0 Bft)
03.04.2023 19:50 2,4 C 8,5 C 2,1 C 2,3 C 2,1 C 0,0 C 58 % 30 % 1030,4 hPa 0,0 l/m 0,0 km/h (0 Bft) NO 45 0 min -5,0 C 2,1 C 0,0 km/h (0 Bft)
03.04.2023 19:55 2,4 C 8,5 C 2,1 C 2,3 C 2,1 C 0,0 C 59 % 31 % 1030,4 hPa 0,0 l/m 0,0 km/h (0 Bft) O-NO 67 0 min -4,8 C 2,1 C 0,0 km/h (0 Bft)
03.04.2023 20:00 2,4 C 8,5 C 2,0 C 2,3 C 2,0 C 0,0 C 59 % 31 % 1030,4 hPa 0,0 l/m 0,0 km/h (0 Bft) O-SO 112 0 min -4,8 C 2,0 C 0,0 km/h (0 Bft)
03.04.2023 20:05 2,3 C 8,5 C 2,1 C 2,2 C 2,0 C 0,0 C 60 % 32 % 1030,9 hPa 0,0 l/m 0,2 km/h (0 Bft) O-NO 67 0 min -4,6 C 2,0 C 0,0 km/h (0 Bft)
03.04.2023 20:10 2,3 C 8,4 C 2,0 C 2,2 C 2,0 C 0,0 C 60 % 32 % 1030,9 hPa 0,0 l/m 0,2 km/h (0 Bft) O-NO 67 0 min -4,6 C 2,0 C 0,0 km/h (0 Bft)
03.04.2023 20:15 2,3 C 8,4 C 2,0 C 2,2 C 1,9 C 0,0 C 61 % 33 % 1030,9 hPa 0,0 l/m 0,2 km/h (0 Bft) N-NO 22 0 min -4,4 C 1,9 C 0,0 km/h (0 Bft)
03.04.2023 20:20 2,3 C 8,4 C 1,9 C 2,2 C 1,9 C 0,0 C 62 % 34 % 1030,9 hPa 0,0 l/m 0,2 km/h (0 Bft) NO 45 0 min -4,2 C 1,9 C 0,0 km/h (0 Bft)
03.04.2023 20:25 2,3 C 8,4 C 2,0 C 2,2 C 1,9 C 0,0 C 62 % 35 % 1030,9 hPa 0,0 l/m 0,0 km/h (0 Bft) O-NO 67 0 min -4,2 C 1,9 C 0,0 km/h (0 Bft)
03.04.2023 20:30 2,3 C 8,4 C 1,9 C 2,1 C 1,8 C 0,0 C 62 % 35 % 1030,9 hPa 0,0 l/m 0,0 km/h (0 Bft) O-NO 67 0 min -4,2 C 1,8 C 1,8 km/h (1 Bft)
03.04.2023 20:35 2,3 C 8,4 C 1,9 C 2,1 C 1,8 C 0,0 C 62 % 35 % 1030,9 hPa 0,0 l/m 0,0 km/h (0 Bft) O-NO 67 0 min -4,2 C 1,8 C 0,0 km/h (0 Bft)
03.04.2023 20:40 2,2 C 8,4 C 1,9 C 2,1 C 1,8 C 0,0 C 62 % 35 % 1030,9 hPa 0,0 l/m 0,0 km/h (0 Bft) NO 45 0 min -4,3 C 1,8 C 0,0 km/h (0 Bft)
03.04.2023 20:45 2,2 C 8,4 C 1,9 C 2,1 C 1,8 C 0,0 C 62 % 36 % 1031,0 hPa 0,0 l/m 0,2 km/h (0 Bft) O-NO 67 0 min -4,3 C 1,8 C 0,0 km/h (0 Bft)
03.04.2023 20:50 2,1 C 8,4 C 1,8 C 2,0 C 1,8 C 0,0 C 62 % 35 % 1031,0 hPa 0,0 l/m 0,3 km/h (0 Bft) NO 45 0 min -4,4 C 1,8 C 4,3 km/h (1 Bft)
03.04.2023 20:55 2,1 C 8,4 C 1,8 C 2,0 C 1,8 C 0,0 C 62 % 35 % 1031,0 hPa 0,0 l/m 0,2 km/h (0 Bft) O-NO 67 0 min -4,4 C 1,8 C 0,0 km/h (0 Bft)
03.04.2023 21:00 2,1 C 8,4 C 1,8 C 2,0 C 1,7 C 0,0 C 62 % 35 % 1031,0 hPa 0,0 l/m 0,0 km/h (0 Bft) O-NO 67 0 min -4,4 C 1,7 C 0,0 km/h (0 Bft)
03.04.2023 21:05 2,0 C 8,4 C 1,5 C 1,8 C 1,5 C 0,0 C 62 % 35 % 1030,6 hPa 0,0 l/m 0,0 km/h (0 Bft) NO 45 0 min -4,5 C 1,5 C 0,0 km/h (0 Bft)
03.04.2023 21:10 2,0 C 8,4 C 1,4 C 1,8 C 1,3 C 0,0 C 63 % 36 % 1030,6 hPa 0,0 l/m 0,0 km/h (0 Bft) NO 45 0 min -4,3 C 1,3 C 0,0 km/h (0 Bft)
03.04.2023 21:15 2,0 C 8,4 C 1,3 C 1,7 C 1,2 C 0,0 C 63 % 36 % 1030,6 hPa 0,0 l/m 0,0 km/h (0 Bft) O-NO 67 0 min -4,3 C 1,2 C 0,0 km/h (0 Bft)
03.04.2023 21:20 1,9 C 8,4 C 1,3 C 1,6 C 1,1 C 0,0 C 63 % 37 % 1030,6 hPa 0,0 l/m 0,0 km/h (0 Bft) NO 45 0 min -4,4 C 1,1 C 0,0 km/h (0 Bft)
03.04.2023 21:25 1,9 C 8,4 C 1,2 C 1,6 C 0,9 C 0,0 C 63 % 37 % 1030,6 hPa 0,0 l/m 0,0 km/h (0 Bft) NO 45 0 min -4,4 C 0,9 C 0,0 km/h (0 Bft)
03.04.2023 21:30 1,8 C 8,4 C 1,1 C 1,5 C 0,8 C 0,0 C 64 % 38 % 1030,6 hPa 0,0 l/m 0,0 km/h (0 Bft) NO 45 0 min -4,3 C 0,8 C 0,0 km/h (0 Bft)
03.04.2023 21:35 1,7 C 8,4 C 0,9 C 1,4 C 0,7 C 0,0 C 64 % 39 % 1030,6 hPa 0,0 l/m 0,0 km/h (0 Bft) O-NO 67 0 min -4,4 C 0,7 C 0,0 km/h (0 Bft)
03.04.2023 21:40 1,6 C 8,4 C 0,8 C 1,3 C 0,6 C 0,0 C 64 % 39 % 1030,6 hPa 0,0 l/m 0,0 km/h (0 Bft) O-NO 67 0 min -4,5 C 0,6 C 0,0 km/h (0 Bft)
03.04.2023 21:45 1,6 C 8,4 C 0,7 C 1,2 C 0,4 C 0,0 C 65 % 40 % 1030,4 hPa 0,0 l/m 0,0 km/h (0 Bft) O-NO 67 0 min -4,3 C 0,4 C 0,0 km/h (0 Bft)
03.04.2023 21:50 1,5 C 8,4 C 0,9 C 1,1 C 0,4 C 0,0 C 65 % 41 % 1030,4 hPa 0,0 l/m 0,0 km/h (0 Bft) O-NO 67 0 min -4,3 C 0,4 C 0,0 km/h (0 Bft)
03.04.2023 21:55 1,5 C 8,4 C 1,0 C 1,2 C 0,6 C 0,0 C 66 % 41 % 1030,4 hPa 0,0 l/m 0,0 km/h (0 Bft) O-NO 67 0 min -4,1 C 0,6 C 0,0 km/h (0 Bft)
03.04.2023 22:00 1,5 C 8,4 C 1,0 C 1,2 C 0,6 C 0,0 C 67 % 41 % 1030,4 hPa 0,0 l/m 0,0 km/h (0 Bft) NO 45 0 min -3,9 C 0,6 C 0,0 km/h (0 Bft)
03.04.2023 22:05 1,4 C 8,4 C 1,0 C 1,1 C 0,6 C 0,0 C 67 % 42 % 1031,1 hPa 0,0 l/m 0,0 km/h (0 Bft) N 360 0 min -4,0 C 0,6 C 0,0 km/h (0 Bft)
03.04.2023 22:10 1,5 C 8,4 C 1,0 C 1,2 C 0,6 C 0,0 C 67 % 42 % 1031,1 hPa 0,0 l/m 0,0 km/h (0 Bft) O-NO 67 0 min -3,9 C 0,6 C 0,0 km/h (0 Bft)
03.04.2023 22:15 1,5 C 8,4 C 0,9 C 1,2 C 0,6 C 0,0 C 67 % 42 % 1031,1 hPa 0,0 l/m 0,0 km/h (0 Bft) O-NO 67 0 min -3,9 C 0,6 C 0,0 km/h (0 Bft)
03.04.2023 22:20 1,5 C 8,4 C 0,8 C 1,2 C 0,6 C 0,0 C 68 % 42 % 1031,1 hPa 0,0 l/m 0,0 km/h (0 Bft) O-NO 67 0 min -3,7 C 0,6 C 0,0 km/h (0 Bft)
03.04.2023 22:25 1,3 C 8,4 C 0,8 C 1,1 C 0,6 C 0,0 C 68 % 42 % 1030,5 hPa 0,0 l/m 0,0 km/h (0 Bft) O-NO 67 0 min -3,9 C 0,6 C 0,0 km/h (0 Bft)
03.04.2023 22:30 1,3 C 8,4 C 0,8 C 1,1 C 0,6 C 0,0 C 68 % 42 % 1030,5 hPa 0,0 l/m 0,0 km/h (0 Bft) O-NO 67 0 min -3,9 C 0,6 C 0,0 km/h (0 Bft)
03.04.2023 22:35 1,3 C 8,4 C 0,8 C 1,1 C 0,6 C 0,0 C 68 % 43 % 1030,5 hPa 0,0 l/m 0,0 km/h (0 Bft) O-NO 67 0 min -3,9 C 0,6 C 0,0 km/h (0 Bft)
03.04.2023 22:40 1,3 C 8,4 C 0,8 C 1,1 C 0,6 C 0,0 C 68 % 44 % 1030,5 hPa 0,0 l/m 0,0 km/h (0 Bft) O-NO 67 0 min -3,9 C 0,6 C 0,0 km/h (0 Bft)
03.04.2023 22:45 1,3 C 8,4 C 0,9 C 1,1 C 0,6 C 0,0 C 69 % 45 % 1030,5 hPa 0,0 l/m 0,0 km/h (0 Bft) O-NO 67 0 min -3,7 C 0,6 C 0,0 km/h (0 Bft)
03.04.2023 22:50 1,3 C 8,4 C 1,0 C 1,1 C 0,6 C 0,0 C 69 % 45 % 1030,5 hPa 0,0 l/m 0,0 km/h (0 Bft) O-NO 67 0 min -3,7 C 0,6 C 0,0 km/h (0 Bft)
03.04.2023 22:55 1,3 C 8,4 C 1,0 C 1,1 C 0,7 C 0,0 C 69 % 46 % 1030,5 hPa 0,0 l/m 0,0 km/h (0 Bft) NO 45 0 min -3,7 C 0,7 C 0,0 km/h (0 Bft)
03.04.2023 23:00 1,3 C 8,4 C 0,9 C 1,1 C 0,7 C 0,0 C 70 % 46 % 1030,5 hPa 0,0 l/m 0,0 km/h (0 Bft) NO 45 0 min -3,6 C 0,7 C 0,0 km/h (0 Bft)
03.04.2023 23:05 1,2 C 8,4 C 0,9 C 1,0 C 0,6 C 0,0 C 70 % 47 % 1030,4 hPa 0,0 l/m 0,0 km/h (0 Bft) NO 45 0 min -3,7 C 0,6 C 0,0 km/h (0 Bft)
03.04.2023 23:10 1,2 C 8,4 C 0,9 C 1,0 C 0,6 C 0,0 C 70 % 46 % 1030,4 hPa 0,0 l/m 0,0 km/h (0 Bft) NO 45 0 min -3,7 C 0,6 C 0,0 km/h (0 Bft)
03.04.2023 23:15 1,2 C 8,4 C 0,9 C 1,0 C 0,6 C 0,0 C 70 % 46 % 1030,4 hPa 0,0 l/m 0,0 km/h (0 Bft) NO 45 0 min -3,7 C 0,6 C 0,0 km/h (0 Bft)
03.04.2023 23:20 1,2 C 8,4 C 0,9 C 1,0 C 0,6 C 0,0 C 70 % 46 % 1030,4 hPa 0,0 l/m 0,0 km/h (0 Bft) NO 45 0 min -3,7 C 0,6 C 0,0 km/h (0 Bft)
03.04.2023 23:25 1,2 C 8,4 C 0,9 C 1,0 C 0,6 C 0,0 C 71 % 46 % 1030,4 hPa 0,0 l/m 0,0 km/h (0 Bft) NO 45 0 min -3,5 C 0,6 C 0,0 km/h (0 Bft)
03.04.2023 23:30 1,2 C 8,4 C 0,9 C 1,0 C 0,6 C 0,0 C 71 % 46 % 1030,4 hPa 0,0 l/m 0,0 km/h (0 Bft) NO 45 0 min -3,5 C 0,6 C 0,0 km/h (0 Bft)
03.04.2023 23:35 1,2 C 8,4 C 0,9 C 1,0 C 0,6 C 0,0 C 71 % 47 % 1030,4 hPa 0,0 l/m 0,0 km/h (0 Bft) NO 45 0 min -3,5 C 0,6 C 0,0 km/h (0 Bft)
03.04.2023 23:40 1,2 C 8,4 C 0,9 C 1,0 C 0,6 C 0,0 C 71 % 47 % 1030,4 hPa 0,0 l/m 0,0 km/h (0 Bft) NO 45 0 min -3,5 C 0,6 C 0,0 km/h (0 Bft)
03.04.2023 23:45 1,2 C 8,4 C 0,8 C 1,0 C 0,6 C 0,0 C 71 % 47 % 1030,4 hPa 0,0 l/m 0,0 km/h (0 Bft) NO 45 0 min -3,5 C 0,6 C 0,0 km/h (0 Bft)
03.04.2023 23:50 1,2 C 8,4 C 0,9 C 1,0 C 0,6 C 0,0 C 71 % 48 % 1030,4 hPa 0,0 l/m 0,0 km/h (0 Bft) NO 45 0 min -3,5 C 0,6 C 0,0 km/h (0 Bft)
03.04.2023 23:55 1,2 C 8,4 C 0,8 C 1,0 C 0,6 C 0,0 C 71 % 48 % 1030,4 hPa 0,0 l/m 0,0 km/h (0 Bft) NO 45 0 min -3,5 C 0,6 C 0,0 km/h (0 Bft)
_ Min-Zeit 07:15 10:55 07:00 07:05 07:00 00:00 15:45 14:05 00:00 - 02:11 - - - 19:45 07:00 00:00
Minimum _ -1,7 C 8,0 C -2,6 C -2,2 C -3,3 C 0,0 C 55 % 28 % 1026,8 hPa - 0,0 km/h (0 Bft) - - - -5,0 C -3,3 C 0,0 km/h (0 Bft)
_ Max-Zeit 15:05 00:00 14:30 15:00 15:00 08:25 07:30 07:25 22:05 00:00 11:20 - - 07:25 00:00 15:00 14:45
Maximum _ 4,9 C 9,4 C 7,4 C 10,5 C 10,5 C 8,6 C 84 % 66 % 1031,1 hPa 0,0 l/m 3,9 km/h
O-NO (1 Bft)
- - 5 min 0,2 C 10,5 C 12,1 km/h
W (2 Bft)
Durchschnitt _ 1,9 C 8,5 C 1,9 C 3,3 C 3,0 C 1,6 C 70 % 44 % 1029,4 hPa #0,0 l/m 0,5 km/h (0 Bft) O-NO - #5:05 h -3,1 C 3,0 C 1,1 km/h (1 Bft)
2023 www.wetterstation-wechselburg.de